Terminal Aerodrome Forecast
Issued by NWS

Home | Current Version | Previous Version | Text Only | Print | Product List | Glossary On
Versions: 1 2 3 4 5 6 7 8 9 10 11 12 13 14 15 16 17 18 19 20 21 22 23 24
000
FTUS44 KOUN 062353 RRA
TAFPNC
TAF
KPNC 062353Z 0700/0724 16015G25KT P6SM OVC050
      TEMPO 0700/0704 VRB25G35KT 3SM +TSRA BKN020CB
     FM070900 15015G22KT P6SM OVC012
     FM071700 16015G22KT P6SM BKN040 PROB30 0720/0724 5SM TSRA
      BKN025CB=

USA.gov is the U.S. government's official web portal to all federal, state and local government web resources and services.